Tracking 19242 objects as of 16-Aug-2018
HD Live streaming from Space Station
objects crossing your sky now

FENGYUN 1C DEB

Track FENGYUN 1C DEB now!
10-day predictions


NORAD ID: 29959
Int'l Code: 1999-025KH
Perigee: 854.4 km
Apogee: 915.5 km
Inclination: 99.1 °
Period: 102.5 minutes
Semi major axis: 7255 km
RCS: 0.028 m2 (small)
Launch date: May 10, 1999
Source: People's Republic of China (PRC)
Launch site: Taiyaun Space Center, China (TSC)

Note: This is SATELLITE DEBRIS
aabbcc
Your satellite tracking list
Your tracking list is empty




NASA's NSSDC Master Catalog

Two Line Element Set (TLE):
1 29959U 99025KH  18227.94252498 +.00000285 +00000-0 +20513-3 0  9991
2 29959 099.1260 250.9690 0042078 228.2299 249.2795 14.04631116593641
Source of the keplerian elements: AFSPC